Date,TemperatureHighF,TemperatureAvgF,TemperatureLowF,DewpointHighF,DewpointAvgF,DewpointLowF,HumidityHigh,HumidityAvg,HumidityLow,PressureMaxIn,PressureMinIn,WindSpeedMaxMPH,WindSpeedAvgMPH,GustSpeedMaxMPH,PrecipitationSumIn
2013-1-1,40.3,33.7,26.6,21.6,8.6,-2.0,64,36,22,30.44,30.29,11,2,11,0.06
2013-1-2,35.8,22.4,14.4,7.4,-5.0,-31.7,63,31,10,30.63,30.44,51,3,51,0.06
2013-1-3,30.7,19.2,7.0,-5.9,-18.0,-26.5,33,19,10,30.71,30.59,5,1,7,0.06
2013-1-4,44.4,33.8,19.9,14.6,7.3,-9.5,61,36,10,30.61,30.38,12,3,12,0.12
2013-1-5,46.8,33.5,22.8,14.6,6.8,-9.3,63,38,10,30.83,30.43,9,2,9,0.14
2013-1-6,46.6,34.6,22.6,28.5,22.1,-10.2,78,61,34,30.81,30.50,10,1,10,0.17
2013-1-7,41.7,32.0,23.0,24.5,20.2,-15.4,79,63,44,30.98,30.53,11,2,11,0.01
2013-1-8,51.1,38.3,23.0,30.4,21.8,12.4,82,55,21,30.97,30.85,17,2,17,0.01
2013-1-9,47.1,39.6,23.4,36.0,29.2,17.4,82,67,46,30.97,30.57,11,2,11,0.01
2013-1-10,52.5,41.2,31.5,30.9,6.9,-6.9,62,27,10,31.08,30.59,103,4,103,0.02
2013-1-11,43.3,37.9,27.3,29.4,24.1,19.2,75,58,43,31.07,30.84,4,1,4,0.02
2013-1-12,46.2,42.9,34.5,41.3,37.4,-9.7,89,82,14,30.84,30.69,4,1,4,0.21
2013-1-13,50.7,47.9,39.9,50.5,46.6,-4.0,99,96,10,30.73,30.59,7,2,7,0.22
2013-1-14,67.1,53.8,44.8,59.1,42.2,19.1,99,69,33,30.83,30.48,7,2,99,0.22
2013-1-15,129.9,39.1,36.0,33.5,28.7,15.2,85,67,45,30.86,30.79,7,2,7,0.43
2013-1-16,40.6,37.0,27.3,39.1,34.6,21.9,94,91,63,30.82,30.33,5,1,5,0.93
2013-1-17,49.6,38.8,31.3,33.3,23.1,12.5,94,56,24,30.64,30.41,10,1,10,0.93
2013-1-18,32.2,23.5,15.6,16.4,-10.3,-25.1,68,25,10,31.05,30.59,16,4,16,0.01
2013-1-19,49.5,42.0,16.2,30.4,23.8,-2.8,64,50,27,31.03,30.49,18,4,18,0.07
2013-1-20,59.0,46.3,30.4,36.8,11.8,-16.2,73,29,10,30.47,30.12,17,4,17,0.00
2013-1-21,33.1,27.5,20.3,17.6,-6.1,-22.3,72,28,10,30.68,30.45,11,2,11,0.00
2013-1-22,33.4,21.3,9.5,17.5,-12.8,-28.4,75,26,10,30.64,30.34,50,4,50,0.01
2013-1-23,19.0,10.5,5.4,-14.0,-21.3,-34.2,31,23,10,30.71,30.63,11,1,11,0.02
2013-1-24,20.7,14.2,2.1,-24.0,-30.5,-36.3,27,11,10,30.74,30.61,12,3,12,0.02
2013-1-25,30.7,20.5,5.9,0.8,-21.8,-34.5,45,15,10,30.86,30.62,10,2,10,0.02
2013-1-26,31.6,21.2,14.7,4.5,-17.7,-31.1,62,20,10,30.77,30.56,9,3,9,0.02
2013-1-27,48.7,24.4,14.7,-11.0,-19.8,-27.5,26,13,10,31.02,30.77,14,3,14,0.02
2013-1-28,34.0,30.5,15.1,26.4,4.3,-19.9,79,44,10,31.02,30.56,5,1,5,0.02
2013-1-29,35.8,33.3,31.5,33.3,28.5,26.2,94,82,78,30.77,30.40,3,0,3,0.24
2013-1-30,61.5,55.7,33.4,57.5,52.7,-35.6,99,90,75,30.75,30.15,18,6,18,0.30
2013-1-31,60.4,46.8,5.4,58.8,21.7,-13.7,96,45,10,30.16,29.60,22,5,22,1.07
2013-2-1,36.0,30.0,23.7,2.9,-10.6,-21.7,31,17,10,30.62,30.16,12,3,12,0.00
2013-2-2,35.1,28.7,22.3,4.8,-11.6,-24.1,40,18,10,30.82,30.62,11,3,11,0.00
2013-2-3,35.1,26.7,25.0,19.4,13.9,7.2,71,59,46,30.64,30.25,11,2,11,0.00
2013-2-4,133.2,32.0,22.3,90.5,-4.2,-55.0,70,27,10,30.50,30.26,14,4,14,0.01
2013-2-5,37.2,26.2,22.3,16.6,8.4,-9.7,63,48,25,30.60,30.49,25,2,25,0.01
2013-2-6,44.1,31.3,26.6,16.6,6.7,-9.0,63,38,15,30.84,30.49,8,2,8,0.06
2013-2-7,31.3,26.8,22.5,13.8,-8.1,-23.5,54,25,10,31.09,30.84,8,3,8,0.06
2013-2-8,33.8,33.0,29.3,30.0,27.5,13.5,91,80,51,31.05,30.19,17,5,17,0.19
2013-2-12,52.9,42.4,33.6,19.3,12.7,-3.1,52,32,10,30.44,30.26,16,3,16,0.66
2013-2-13,48.9,37.5,24.4,20.9,9.7,-6.7,71,37,10,30.44,30.29,8,2,8,0.66
2013-2-14,48.6,35.8,25.3,29.3,16.4,-7.3,83,50,10,30.58,30.25,10,2,10,0.83
2013-2-15,54.9,37.1,22.5,35.2,24.5,12.2,85,64,21,30.61,30.50,14,2,14,0.84
2013-2-16,39.7,33.8,27.5,30.4,27.6,23.0,88,78,58,30.51,30.30,10,4,10,0.07
2013-2-17,33.6,21.2,19.9,29.3,5.3,-26.3,84,57,10,30.29,29.86,16,6,16,0.14
2013-2-18,41.5,27.3,14.9,-10.9,-20.8,-26.3,22,11,10,30.72,30.15,17,4,17,0.19
2013-2-19,51.8,42.4,21.2,42.9,22.2,-26.7,93,52,10,30.73,30.15,100,3,100,0.80
2013-2-20,44.1,33.9,25.7,38.1,-4.9,-20.1,93,23,10,30.34,30.11,13,4,13,0.01
2013-2-21,41.0,31.9,25.9,9.5,-6.1,-17.1,44,21,10,30.69,30.34,12,4,12,0.01
2013-2-22,39.6,35.3,30.2,18.5,13.9,8.8,50,41,31,30.93,30.69,10,3,10,0.00
2013-2-23,40.5,37.2,33.6,30.7,24.5,15.6,81,60,46,30.92,30.53,8,2,8,0.20
2013-2-24,41.2,37.3,33.1,40.7,36.6,30.7,99,97,81,30.53,30.16,11,5,11,0.99
2013-2-25,46.4,36.3,29.3,32.1,21.9,4.9,97,59,19,30.80,30.37,9,3,9,0.09
2013-2-26,49.5,40.3,25.2,32.2,20.1,-4.2,85,50,12,30.91,30.76,6,2,6,0.00
2013-2-27,135.3,45.1,37.4,99.9,40.9,27.1,93,90,66,30.76,30.10,49,6,49,0.69
2013-2-28,135.3,82.0,26.1,99.9,62.3,20.5,93,83,50,30.21,30.08,49,22,49,0.70
2013-3-1,42.4,39.1,35.4,34.7,27.3,24.1,90,63,50,30.23,30.07,13,3,13,0.00
2013-3-2,47.3,40.4,33.1,26.2,18.7,8.6,65,43,24,30.23,30.18,9,3,9,0.00
2013-3-3,45.5,38.7,34.7,25.4,20.1,9.4,66,48,23,30.21,30.11,8,2,8,0.00
2013-3-4,44.6,38.1,29.8,25.7,8.7,-9.1,75,33,10,30.24,30.11,13,4,13,0.00
2013-3-5,43.2,38.5,32.4,30.9,23.2,13.9,74,55,34,30.61,30.24,12,4,12,0.01
2013-3-6,42.3,37.8,32.5,30.4,28.2,-20.6,76,68,55,30.65,30.55,23,6,23,0.06
2013-3-7,41.9,35.1,-18.9,36.5,29.9,-58.4,88,82,10,30.55,30.46,105,10,105,1.03
2013-3-8,83.1,36.7,32.9,76.4,31.3,23.8,90,82,51,30.62,30.45,17,7,17,0.58
2013-3-9,42.4,37.4,34.9,27.6,24.0,10.3,70,58,46,30.88,30.62,13,6,13,0.01
2013-3-10,42.8,37.6,26.8,28.2,22.9,14.8,76,56,42,30.97,30.88,6,2,6,0.00
2013-3-11,77.4,45.3,32.4,34.9,31.3,25.0,77,59,37,30.90,30.76,8,3,8,0.00
2013-3-12,57.2,52.9,42.6,50.4,44.6,-0.9,87,74,10,30.76,30.33,29,7,29,0.51
2013-3-13,61.2,47.1,30.2,48.5,13.5,-5.1,91,30,10,30.35,30.24,9,2,9,0.54
2013-3-14,42.1,33.4,26.1,27.5,-3.1,-19.7,67,26,10,30.77,30.25,10,2,10,0.00
2013-3-15,48.0,35.5,21.0,16.5,-7.1,-23.1,50,18,10,30.43,30.21,10,3,10,0.00
2013-3-16,42.4,35.3,26.2,16.9,-3.4,-15.4,55,23,10,30.41,30.23,9,2,9,0.00
2013-3-17,43.2,36.9,28.8,12.1,-13.3,-20.1,48,11,10,30.78,30.41,13,4,13,0.00
2013-3-18,37.9,32.7,27.9,15.3,-3.6,-21.7,53,22,10,31.02,30.78,8,3,8,0.00
2013-3-19,41.0,38.1,30.2,36.5,33.3,15.6,86,83,54,30.86,30.04,15,4,15,0.84
2013-3-20,48.6,36.9,25.9,32.0,0.2,-12.9,86,27,10,30.38,30.15,14,2,14,0.85
2013-3-21,37.4,33.3,24.4,24.8,17.2,6.7,77,54,29,30.38,30.15,10,4,10,0.85
2013-3-22,46.8,36.8,27.3,24.8,6.5,-13.3,78,33,10,30.30,30.15,8,2,8,0.92
2013-3-23,48.7,39.4,26.8,13.6,-2.5,-12.7,51,20,10,30.33,30.19,12,4,12,0.92
2013-3-24,50.5,42.8,33.3,20.2,4.0,-9.3,53,23,10,30.38,30.30,10,3,10,0.92
2013-3-25,49.8,41.1,29.1,29.7,20.9,8.9,75,47,19,30.35,30.05,14,5,14,0.93
2013-3-26,52.2,40.9,32.0,26.8,9.9,-7.6,73,34,10,30.31,30.03,14,4,14,0.97
2013-3-27,54.3,47.6,32.0,27.1,2.2,-9.0,59,19,10,30.41,30.29,10,3,10,0.97
2013-3-28,51.4,43.2,38.3,29.8,22.2,14.3,70,44,27,30.58,30.40,11,3,11,0.09
2013-3-29,56.1,50.8,39.0,25.2,15.1,1.5,55,26,11,30.60,30.53,8,2,8,0.09
2013-3-30,98.4,48.0,33.8,27.3,5.5,-5.9,60,21,10,30.66,30.58,53,3,53,0.09
2013-3-31,63.0,45.4,26.6,35.4,12.5,-10.5,74,36,10,30.69,30.49,9,2,9,0.00
2013-4-1,62.2,53.2,40.5,39.8,27.8,-0.9,78,39,18,30.49,30.10,15,4,15,0.40
2013-4-2,49.6,40.3,33.1,1.5,-11.8,-17.2,19,10,10,30.53,30.30,16,4,16,0.40
2013-4-3,52.3,42.4,29.8,-2.7,-9.6,-17.1,21,10,10,30.69,30.49,14,4,14,0.40
2013-4-4,56.3,46.3,30.6,22.7,2.5,-16.0,53,19,10,30.85,30.64,11,4,11,0.40
2013-4-5,54.5,44.2,37.9,31.3,24.1,7.8,63,46,23,30.65,30.20,11,2,11,0.00
2013-4-6,48.7,39.5,28.0,12.8,-4.9,-15.5,51,17,10,30.91,30.42,14,3,14,0.00
2013-4-7,56.1,49.1,27.7,29.1,10.2,-3.4,63,25,10,30.91,30.62,17,6,17,0.19
2013-4-8,72.7,55.3,44.8,40.2,23.4,7.4,75,32,12,30.69,30.57,10,3,10,0.00
2013-4-9,67.3,51.3,42.1,46.8,37.5,-8.4,80,60,31,30.68,30.41,11,2,11,0.02
2013-4-10,57.2,49.3,19.2,40.6,35.0,12.0,78,59,37,30.58,30.43,24,2,24,0.12
2013-4-11,54.0,46.4,43.7,42.2,33.9,-8.7,86,63,37,30.70,30.38,8,2,8,0.38
2013-4-12,43.7,41.4,37.9,36.8,28.1,17.2,85,60,37,30.73,30.31,14,4,14,0.72
2013-4-13,54.5,43.7,39.0,36.8,30.0,-12.9,86,59,39,30.47,30.28,10,4,10,0.77
2013-4-14,45.0,45.0,45.0,28.9,28.9,28.9,53,53,53,30.75,30.47,2,2,2,0.77
2013-4-15,87.8,49.7,41.4,70.2,24.2,12.2,56,38,20,30.99,30.75,9,3,9,0.77
2013-4-16,66.2,54.8,35.2,38.0,25.2,3.5,76,38,10,30.99,30.71,21,5,21,0.77
2013-4-17,103.5,55.8,43.5,45.5,18.4,0.6,74,29,10,30.90,30.67,10,3,10,0.78
2013-4-18,71.8,55.1,43.7,28.2,12.8,-1.1,54,24,10,31.00,30.83,13,4,13,0.78
2013-4-19,74.1,66.2,51.3,58.3,53.6,23.9,81,65,34,30.83,30.29,16,5,16,0.06
2013-4-20,64.8,55.0,10.2,58.1,35.3,-4.4,87,55,10,30.67,30.25,100,8,100,0.15
2013-4-21,54.7,45.1,34.5,33.3,1.9,-27.5,69,19,10,31.24,30.67,11,4,11,0.15
2013-4-22,55.0,46.8,32.0,25.6,17.3,-3.4,61,33,10,31.32,31.16,13,4,13,0.15
2013-4-23,54.7,43.1,41.4,39.6,37.5,21.6,87,80,45,31.16,30.61,106,4,106,0.64
2013-4-24,72.9,54.2,42.8,44.3,38.6,-8.6,86,59,20,30.61,30.42,103,5,103,0.83
2013-4-25,65.7,53.6,40.6,47.9,29.6,2.7,83,50,10,30.81,30.44,10,2,11,0.04
2013-4-26,59.5,50.9,39.2,43.8,29.3,19.5,78,47,22,30.99,30.81,102,2,102,0.04
2013-4-27,89.6,53.9,0.3,66.8,19.5,-43.1,80,31,10,30.99,30.89,25,2,25,0.06
2013-4-28,69.4,61.7,41.9,55.8,16.1,4.3,69,20,10,30.92,30.81,10,3,10,0.04
2013-4-29,74.8,54.8,44.6,39.3,13.7,-3.6,59,23,10,30.87,30.80,8,2,8,0.04
2013-4-30,68.4,55.4,32.0,38.0,12.9,-14.8,60,21,10,30.94,30.83,8,1,8,0.02
2013-5-1,67.6,56.3,44.8,39.0,26.6,-31.3,60,34,10,31.06,30.94,52,2,52,0.01
2013-5-2,75.2,55.8,44.8,37.3,26.4,9.4,60,41,10,31.03,30.95,10,2,10,0.01
2013-5-3,53.2,48.1,40.1,36.7,32.3,-5.0,70,55,44,31.08,30.92,9,4,9,0.00
2013-5-4,58.5,50.8,40.8,37.2,27.6,0.3,76,42,22,30.93,30.88,54,4,54,0.00
2013-5-5,61.9,53.6,41.9,35.1,30.7,20.4,67,43,20,30.89,30.83,9,3,9,0.00
2013-5-6,64.8,55.0,23.0,40.9,36.9,-5.1,72,52,30,30.86,30.74,97,2,97,0.00
2013-5-7,81.1,65.5,45.7,51.1,43.0,30.3,73,46,19,30.77,30.68,7,2,7,0.00
2013-5-8,77.0,63.4,52.5,55.7,50.9,44.4,83,65,41,30.78,30.61,8,2,8,0.12
2013-5-9,67.1,60.5,4.5,59.3,52.7,-39.9,89,76,10,30.61,30.44,6,1,6,0.15
2013-5-10,77.0,66.6,55.0,57.0,47.4,38.8,88,53,27,30.53,30.44,7,2,7,0.00
2013-5-11,72.0,63.7,57.0,57.4,53.7,46.4,82,70,44,30.51,30.32,13,4,13,0.50
2013-5-12,77.7,64.8,58.3,62.0,51.7,37.0,99,68,34,30.32,30.14,9,2,9,0.59
2013-5-13,65.5,56.1,41.7,37.8,13.8,-1.1,60,21,10,30.58,30.25,13,3,13,0.59
2013-5-14,61.2,51.8,43.7,31.2,22.6,1.4,54,34,10,30.61,30.53,7,2,7,0.59
2013-5-15,68.7,53.6,40.8,43.7,28.5,5.7,69,46,10,30.63,30.28,12,3,12,0.64
2013-5-16,88.2,67.6,51.6,48.0,33.8,16.5,82,38,10,30.28,30.20,10,2,10,0.79
2013-5-17,69.4,60.0,50.2,39.4,27.7,9.9,63,32,10,30.78,30.28,50,2,50,0.79
2013-5-18,109.9,66.0,-8.9,80.3,29.2,-42.6,70,30,10,30.88,30.78,100,3,100,0.79
2013-5-19,76.3,65.7,50.4,44.0,33.6,20.4,71,34,13,30.92,30.85,12,3,12,0.79
2013-5-20,84.4,72.4,56.5,60.4,55.2,43.6,91,58,32,30.86,30.47,8,3,8,0.92
2013-5-21,86.2,67.5,54.7,62.5,53.1,12.2,85,63,29,30.55,30.41,8,2,8,0.92
2013-5-22,69.8,60.9,54.9,66.8,50.7,46.7,90,70,52,30.55,30.45,6,2,6,0.93
2013-5-23,75.6,67.4,58.8,64.1,61.7,52.7,99,83,57,30.50,30.46,11,4,11,1.04
2013-5-24,66.9,62.2,54.0,66.7,61.5,53.3,99,98,89,30.46,30.27,10,2,10,1.63
2013-5-25,56.1,51.6,43.7,53.4,47.6,41.2,99,86,77,30.34,30.23,8,2,8,1.96
2013-5-26,60.8,53.0,41.7,41.2,33.0,11.0,91,49,27,30.63,30.28,8,2,8,1.97
2013-5-27,78.3,65.5,46.0,40.9,24.0,7.2,63,27,10,30.72,30.63,11,2,11,1.97
2013-5-28,63.7,63.3,49.1,39.7,34.6,33.1,70,34,33,30.81,30.72,5,4,5,1.97
2013-5-29,63.5,63.5,63.5,34.6,34.6,34.6,34,34,34,30.80,30.80,4,4,4,1.97
2013-5-30,63.5,63.5,63.5,34.6,34.6,34.6,34,34,34,30.80,30.80,4,4,4,1.97
2013-5-31,63.5,63.5,63.5,34.6,34.6,34.6,34,34,34,30.80,30.80,4,4,4,1.97
2013-6-1,63.5,63.5,63.5,34.6,34.6,34.6,34,34,34,30.80,30.80,4,4,4,1.97
2013-6-2,63.5,63.5,63.5,34.6,34.6,34.6,34,34,34,30.80,30.80,4,4,4,1.97
2013-6-3,63.5,63.5,63.5,34.6,34.6,34.6,34,34,34,30.80,30.80,4,4,4,1.97
2013-6-4,63.5,63.5,63.5,34.6,34.6,34.6,34,34,34,30.80,30.80,4,4,4,1.97
2013-6-5,63.5,63.5,63.5,34.6,34.6,34.6,34,34,34,30.80,30.80,4,4,4,1.97
2013-6-6,63.5,63.5,63.5,34.6,34.6,34.6,34,34,34,30.80,30.80,4,4,4,1.97
2013-6-7,63.5,63.5,63.5,34.6,34.6,34.6,34,34,34,30.80,30.80,4,4,4,1.97
2013-6-8,63.5,63.5,63.5,34.6,34.6,34.6,34,34,34,30.80,30.80,4,4,4,1.97
2013-6-9,63.5,63.5,63.5,34.6,34.6,34.6,34,34,34,30.80,30.80,4,4,4,1.97
2013-6-10,63.5,63.5,63.5,34.6,34.6,34.6,34,34,34,30.80,30.80,4,4,4,1.97
2013-6-11,63.5,63.5,63.5,34.6,34.6,34.6,34,34,34,30.80,30.80,4,4,4,1.97
2013-6-12,63.5,63.5,63.5,34.6,34.6,34.6,34,34,34,30.80,30.80,4,4,4,1.97
2013-6-13,63.5,63.5,63.5,34.6,34.6,34.6,34,34,34,30.80,30.80,4,4,4,1.97
2013-6-14,62.2,49.1,40.3,39.0,32.5,20.3,74,56,20,30.65,30.58,8,2,8,0.00
2013-6-15,64.6,51.8,48.2,41.2,38.2,-5.3,71,62,10,30.61,30.20,97,1,97,0.00
2013-6-16,69.1,51.8,48.2,56.1,42.4,39.2,73,70,57,30.27,30.07,10,1,10,0.00
2013-6-17,88.0,78.4,62.4,58.6,52.7,-28.6,80,44,24,30.25,30.09,10,3,10,0.14
2013-6-18,76.3,65.4,60.1,58.2,54.3,7.9,87,69,41,30.27,30.21,4,2,4,0.15
2013-6-19,73.8,64.4,0.0,55.0,44.3,-18.0,87,50,26,30.47,30.20,5,2,5,0.21
2013-6-20,72.0,58.3,55.0,46.1,45.0,41.8,69,62,35,30.59,30.47,8,1,8,0.21
2013-6-21,83.3,74.8,61.2,50.1,47.8,43.2,59,39,28,30.61,30.53,8,3,8,0.21
2013-6-22,86.4,73.1,64.2,55.7,48.3,37.9,72,44,18,30.57,30.47,10,4,10,0.21
2013-6-23,86.9,77.2,-19.8,63.6,58.0,-38.2,78,53,32,30.51,30.35,10,4,10,0.21
2013-6-24,98.1,83.9,68.4,66.6,60.8,47.8,84,50,20,30.36,30.19,8,2,8,0.27
2013-6-25,96.1,79.3,68.2,64.7,58.7,45.5,83,55,18,30.23,30.06,8,2,8,0.00
2013-6-26,86.5,77.4,67.5,71.9,61.9,56.7,98,61,37,30.17,30.06,4,1,4,0.01
2013-6-27,69.4,66.9,65.7,65.8,62.5,59.3,94,86,72,30.17,30.07,4,1,4,0.20
2013-6-28,72.9,71.4,66.4,72.6,70.7,63.4,99,98,90,30.07,29.85,11,4,11,0.50
2013-6-29,81.0,73.0,69.8,71.7,66.6,60.3,99,82,52,30.07,29.88,12,4,12,0.59
2013-6-30,80.4,75.2,70.0,67.8,65.9,64.5,90,74,59,30.28,30.06,10,3,10,0.09
2013-7-1,78.4,74.0,70.2,73.4,69.4,66.0,99,86,70,30.43,30.28,9,2,9,0.27
2013-7-2,86.0,76.5,71.4,71.1,67.5,64.8,93,75,52,30.53,30.23,10,3,10,0.28
2013-7-3,91.8,78.6,66.6,68.2,64.7,-9.7,88,65,37,30.55,30.48,8,2,8,0.28
2013-7-4,95.0,85.0,73.8,71.3,66.4,59.1,87,56,31,30.54,30.42,9,2,9,0.00
2013-7-5,95.4,86.2,75.7,67.9,64.4,58.8,68,50,31,30.49,30.37,9,2,9,0.00
2013-7-6,96.6,88.3,74.7,69.0,64.2,55.1,78,47,26,30.41,30.31,5,2,5,0.00
2013-7-7,95.9,78.8,71.8,71.0,65.0,56.2,82,66,29,30.34,30.23,4,1,4,0.13
2013-7-8,89.4,75.7,67.5,70.2,64.4,58.5,86,70,39,30.38,30.24,8,1,8,0.00
2013-7-9,72.0,69.3,67.1,66.9,62.2,59.6,92,79,66,30.43,30.35,3,0,3,0.00
2013-7-10,86.4,75.7,69.1,73.0,66.9,62.8,92,75,48,30.40,30.14,10,2,10,0.05
2013-7-11,78.6,73.9,-11.0,69.3,66.3,-15.5,84,77,63,30.21,30.12,7,1,7,0.33
2013-7-12,72.3,68.5,66.2,66.9,59.9,54.0,94,75,57,30.51,30.21,5,1,5,0.33
2013-7-13,82.2,71.6,66.2,67.4,64.3,58.6,93,79,48,30.63,30.50,5,1,5,0.67
2013-7-14,90.5,80.0,69.8,77.8,70.2,63.7,99,74,42,30.63,30.52,5,0,5,0.04
2013-7-15,94.1,85.2,76.5,67.1,58.9,48.7,72,43,24,30.50,30.42,4,1,4,0.05
2013-7-16,92.5,80.6,71.6,68.3,59.7,-48.1,84,52,23,30.48,30.41,4,1,4,0.05
2013-7-17,96.3,85.6,72.1,64.1,55.4,41.7,68,38,16,30.52,30.34,8,2,8,0.00
2013-7-18,89.2,83.1,76.3,67.9,62.0,54.8,65,50,32,30.37,30.28,5,1,5,0.00
2013-7-19,99.9,88.5,77.9,71.1,65.5,53.5,75,49,23,30.30,30.06,9,3,9,0.00
2013-7-20,95.4,89.0,72.7,71.0,64.5,27.8,82,47,31,30.11,29.96,8,4,8,0.08
2013-7-21,82.4,75.3,70.2,67.1,59.0,-20.7,85,58,37,30.31,30.11,4,1,4,0.01
2013-7-22,117.3,74.0,69.4,68.9,61.6,42.1,95,69,10,30.32,30.20,12,2,12,0.01
2013-7-23,86.4,79.3,69.6,77.2,67.0,59.4,99,67,48,30.20,29.86,49,2,49,0.02
2013-7-24,87.3,82.4,72.5,70.4,63.0,58.4,86,53,39,30.18,29.91,3,0,3,0.02
2013-7-25,72.5,63.9,62.6,60.1,52.4,47.7,73,66,54,30.39,30.18,6,3,6,0.06
2013-7-26,68.4,66.0,63.3,66.0,63.3,54.6,95,91,70,30.35,30.21,7,1,7,0.53
2013-7-27,86.7,77.2,66.6,65.8,57.2,46.3,93,53,25,30.39,30.30,8,3,8,0.54
2013-7-28,75.7,72.6,70.3,69.9,62.8,12.1,88,72,60,30.35,30.30,3,0,3,0.67
2013-7-29,87.6,77.5,72.5,66.1,63.1,15.1,78,62,36,30.36,30.31,7,2,7,0.67
2013-7-30,81.7,74.4,64.8,65.6,51.2,39.7,82,47,24,30.41,30.34,4,1,4,0.67
2013-7-31,75.2,48.6,0.0,57.6,55.4,51.8,69,43,44,30.45,30.38,2,0,2,0.67
2013-8-1,86.0,76.8,63.5,65.1,52.6,39.4,82,44,20,30.38,30.22,8,2,8,0.76
2013-8-2,82.4,72.2,63.3,71.4,61.3,52.6,93,71,39,30.22,30.12,6,0,6,0.58
2013-8-3,78.6,72.3,68.4,59.1,56.8,53.9,71,59,44,30.20,30.10,7,2,7,0.58
2013-8-4,81.0,70.1,-7.4,58.3,48.0,-32.3,76,48,21,30.17,30.09,4,1,4,0.09
2013-8-5,80.1,69.4,56.3,52.9,35.8,16.0,76,35,10,30.36,30.17,7,1,7,0.09
2013-8-6,78.4,69.4,56.1,51.7,44.1,34.9,69,43,21,30.49,30.36,49,1,49,0.09
2013-8-7,82.8,75.9,59.4,58.9,40.9,32.6,69,31,18,30.52,30.46,7,2,7,0.09
2013-8-8,84.2,73.4,59.7,63.7,56.9,47.8,72,57,33,30.49,30.35,9,3,9,0.00
2013-8-9,76.3,73.9,71.1,72.8,68.7,63.6,95,84,66,30.39,30.09,11,3,11,0.63
2013-8-10,89.8,76.1,63.9,71.7,51.4,33.3,93,46,16,30.33,30.12,6,1,6,0.63
2013-8-11,81.3,70.9,62.8,51.9,42.4,23.6,62,39,13,30.41,30.31,4,1,4,0.00
2013-8-12,80.8,75.0,69.8,60.0,57.2,49.9,71,54,39,30.34,30.25,6,2,6,0.00
2013-8-13,74.7,71.5,66.9,65.7,61.1,56.4,86,70,58,30.25,30.01,2,1,2,0.01
2013-8-14,81.0,70.4,61.0,59.5,38.8,23.2,77,35,13,30.27,30.04,7,2,7,0.02
2013-8-15,81.9,65.7,56.3,47.1,40.3,16.7,64,44,10,30.45,30.32,7,1,7,0.02
2013-8-16,83.7,71.8,60.8,52.8,40.8,-7.2,64,37,10,30.52,30.44,97,2,97,0.00
2013-8-17,78.1,72.6,64.2,52.4,50.1,44.6,64,46,31,30.61,30.52,4,2,4,0.00
2013-8-18,74.8,71.5,71.1,52.3,51.3,48.3,50,49,39,30.61,30.42,3,2,3,0.00
2013-8-19,71.1,71.1,71.1,50.4,50.4,50.4,48,48,48,30.43,30.27,0,0,1,0.00
2013-8-20,86.7,80.9,71.1,53.9,50.3,41.9,48,35,21,30.43,30.31,6,1,6,0.02
2013-8-21,87.8,79.1,69.4,59.0,53.7,46.4,69,43,25,30.47,30.36,8,2,8,0.02
2013-8-22,84.4,81.3,72.5,63.8,62.6,61.9,72,53,48,30.33,30.17,7,2,7,0.05
2013-8-23,79.0,71.3,61.2,63.2,51.5,42.0,83,53,29,30.39,30.15,6,1,6,0.05
2013-8-24,76.8,69.6,56.1,51.3,40.0,33.7,70,35,22,30.64,30.39,6,3,6,0.05
2013-8-25,85.3,72.7,55.9,48.6,37.7,19.7,60,31,10,30.69,30.53,6,1,6,0.05
2013-8-26,76.3,73.0,63.5,56.7,51.7,44.5,59,48,40,30.54,30.21,6,2,6,0.05
2013-8-27,72.7,69.9,67.8,68.7,64.0,56.2,90,82,58,30.22,30.16,3,0,3,0.12
2013-8-28,74.1,68.4,64.2,65.7,61.6,-12.9,96,80,58,30.28,30.19,3,0,3,0.01
2013-8-29,68.5,64.9,62.1,64.0,58.5,52.0,96,81,67,30.38,30.28,5,2,5,0.01
2013-8-30,77.4,69.3,62.6,63.7,55.2,9.6,83,62,10,30.34,30.17,100,3,100,0.01
2013-8-31,81.1,75.4,69.1,65.3,63.0,15.4,83,66,10,30.18,30.14,8,3,8,0.01
2013-9-1,75.6,72.9,70.2,71.9,69.8,64.7,95,90,73,30.22,30.17,5,2,5,0.43
2013-9-2,84.2,76.9,72.3,71.3,67.9,65.1,96,76,53,30.22,30.05,8,2,8,0.15
2013-9-3,82.4,73.6,66.6,71.2,64.8,61.8,96,76,50,30.14,30.03,7,1,7,0.41
2013-9-6,69.8,63.4,62.1,65.1,36.6,28.2,95,38,23,30.57,30.13,5,1,5,0.44
2013-9-7,109.9,70.4,62.1,92.5,37.3,16.3,59,33,10,30.47,30.21,9,3,9,0.44
2013-9-8,80.4,69.8,60.3,54.2,43.7,28.1,64,40,25,30.34,30.06,6,2,6,0.44
2013-9-9,63.9,62.8,53.1,45.1,30.7,13.3,71,31,26,30.58,30.34,5,2,5,0.44
2013-9-10,116.6,69.3,63.5,59.7,48.9,28.9,69,51,10,30.51,30.35,11,3,11,0.44
2013-9-11,91.4,81.4,70.3,65.6,62.2,59.7,73,54,37,30.41,30.28,7,3,7,0.44
2013-9-12,78.8,72.6,70.0,67.0,64.9,60.6,88,78,55,30.34,30.06,100,3,100,0.44
2013-9-13,74.3,39.1,0.0,66.2,61.6,56.3,86,46,60,30.07,29.89,4,0,4,0.61
2013-9-14,76.5,65.6,60.6,58.1,46.8,42.9,86,51,39,30.34,30.05,4,1,4,0.63
2013-9-15,72.3,64.2,55.0,49.4,41.0,32.9,78,44,27,30.50,30.33,7,1,7,0.63
2013-9-16,64.4,60.2,57.0,52.0,46.7,32.6,74,62,39,30.49,30.35,6,0,6,0.65
2013-9-17,60.3,56.4,52.2,33.4,25.7,-22.2,41,31,21,30.74,30.49,6,2,6,0.65
2013-9-18,73.9,64.1,55.9,34.9,25.2,9.0,39,25,10,30.66,30.48,100,4,100,0.65
2013-9-19,67.6,61.9,56.3,46.6,39.8,34.4,64,45,36,30.49,30.37,3,0,3,0.00
2013-9-20,73.0,59.4,-2.6,44.7,42.9,-19.4,63,56,26,30.42,30.33,5,0,5,0.19
2013-9-21,78.3,72.7,62.1,60.8,50.5,44.2,90,47,32,30.37,30.15,11,3,11,0.19
2013-9-22,70.7,64.7,56.3,62.3,53.8,43.3,86,69,46,30.15,29.97,5,0,5,0.47
2013-9-23,64.0,58.6,52.7,58.0,29.5,-37.9,91,34,10,30.29,30.09,85,5,85,0.47
2013-9-24,64.4,57.6,51.4,35.2,30.3,24.2,48,36,22,30.29,30.15,6,2,6,0.47
2013-9-25,63.7,57.7,56.3,37.0,34.3,29.8,48,42,29,30.30,30.22,4,1,4,0.47
2013-9-26,63.9,56.7,51.6,40.0,37.7,32.3,64,50,31,30.43,30.30,5,1,5,0.47
2013-9-27,67.3,56.3,49.1,42.6,40.6,38.2,71,57,35,30.58,30.43,5,1,5,0.47
2013-9-28,49.1,49.1,49.1,40.1,40.1,40.1,71,71,71,30.65,30.58,0,0,0,0.47
2013-9-29,70.3,59.6,49.1,43.4,40.9,-17.6,71,51,25,30.60,30.46,4,1,4,0.47
2013-9-30,66.7,58.8,56.8,45.0,43.6,43.1,64,57,54,30.46,30.29,97,0,97,0.47
2013-10-1,74.7,62.3,56.8,44.8,41.3,31.4,64,48,22,30.30,30.18,4,0,4,0.47
2013-10-2,76.1,72.9,66.4,48.4,44.4,38.6,46,36,33,30.24,30.13,5,3,5,0.47
2013-10-3,78.8,66.4,55.2,48.4,39.0,16.0,63,41,10,30.41,30.21,5,0,5,0.47
2013-10-4,67.6,64.1,55.4,54.4,45.4,41.3,85,53,41,30.42,30.35,2,0,2,0.70
2013-10-5,68.5,61.4,56.5,58.3,52.2,3.8,95,73,52,30.45,30.38,4,1,4,0.01
2013-10-6,60.3,58.4,57.4,50.9,48.9,45.0,79,71,59,30.54,30.44,8,1,8,0.01
2013-10-7,78.1,73.2,59.9,67.4,62.6,49.7,90,70,52,30.50,30.16,14,4,14,0.05
2013-10-8,72.7,64.0,51.6,61.5,43.8,29.5,68,50,28,30.63,30.18,4,2,4,0.09
2013-10-9,66.4,58.2,4.3,39.0,30.3,-22.5,62,35,20,30.78,30.64,7,2,7,0.09
2013-10-10,65.5,61.1,53.8,45.6,44.3,33.8,60,54,45,30.70,30.48,5,3,5,0.09
2013-10-11,63.7,40.1,0.0,48.3,46.2,41.0,67,36,56,30.48,30.42,5,2,5,0.09
2013-10-12,63.0,58.9,52.9,53.2,46.8,27.1,81,64,57,30.70,30.46,6,2,6,0.00
2013-10-13,59.5,56.3,49.3,40.8,34.2,31.2,56,44,36,30.77,30.70,4,1,4,0.00
2013-10-14,68.2,52.8,37.2,38.3,34.9,21.4,78,54,20,30.73,30.60,4,1,4,0.00
2013-10-15,61.2,52.4,42.8,47.9,42.6,37.1,86,71,44,30.61,30.51,3,0,3,0.00
2013-10-16,61.0,58.3,55.6,53.4,50.7,40.1,87,77,52,30.51,30.26,4,0,4,0.00
2013-10-17,71.4,63.8,56.7,54.9,47.5,39.1,92,57,35,30.26,30.09,6,1,6,0.00
2013-10-18,68.2,62.2,51.3,54.3,40.7,22.7,77,49,18,30.25,29.97,4,1,8,0.02
2013-10-19,57.4,53.1,51.3,35.0,34.5,32.5,53,49,40,30.32,30.10,4,0,4,0.02
2013-10-20,70.5,59.6,57.2,33.7,21.3,4.6,41,27,10,30.29,30.06,7,1,7,0.00
2013-10-21,61.7,49.3,41.2,25.5,23.3,4.6,53,40,10,30.45,30.30,2,1,3,0.00
2013-10-22,72.9,61.7,52.0,41.5,30.7,20.9,60,33,21,30.35,30.03,7,2,7,0.00
2013-10-23,52.0,44.4,39.7,38.1,30.5,25.1,74,58,54,30.12,29.92,2,0,2,0.09
2013-10-24,42.6,40.7,38.7,34.2,26.1,10.0,75,57,26,30.22,29.94,4,0,4,0.11
2013-10-25,52.2,46.9,40.8,16.6,10.3,-3.3,37,24,10,30.49,30.21,8,1,8,0.11
2013-10-26,57.9,51.8,50.4,23.8,10.5,-0.4,33,19,10,30.50,30.25,11,3,11,0.11
2013-10-27,51.8,46.5,43.2,33.8,33.1,24.3,65,60,34,30.27,30.18,2,0,2,0.13
2013-10-28,59.4,51.4,46.8,33.6,20.2,1.6,60,39,10,30.65,30.27,4,1,4,0.13
2013-10-29,57.7,57.7,57.7,1.6,1.6,1.6,10,10,10,30.75,30.65,3,3,3,0.13
2013-10-30,57.7,48.2,32.7,38.9,36.1,1.6,74,64,10,30.73,30.53,4,0,4,0.18
2013-10-31,50.4,50.4,50.4,36.2,36.2,36.2,58,58,58,30.58,30.26,0,0,0,0.18
2013-11-1,50.4,21.6,0.0,36.2,36.2,36.2,58,25,58,30.26,29.84,0,0,0,0.18
2013-11-2,63.0,57.7,0.0,43.9,38.8,33.4,63,49,33,30.03,29.92,2,0,2,0.31
2013-11-3,57.9,51.0,38.8,39.4,29.2,-11.5,50,43,22,30.68,30.00,7,1,7,0.38
2013-11-4,48.0,39.7,36.3,14.8,7.4,-10.8,40,27,10,31.02,30.68,7,2,7,0.09
2013-11-5,53.4,42.6,35.2,22.3,16.0,6.9,58,36,15,31.04,30.91,4,1,4,0.00
2013-11-6,61.5,49.4,35.4,39.3,29.9,21.1,69,50,22,30.91,30.44,9,2,9,0.00
2013-11-7,74.8,61.7,38.1,70.4,53.2,27.4,89,74,62,30.44,30.00,11,4,11,0.72
2013-11-8,54.7,43.9,37.6,46.7,9.9,-24.8,80,30,10,30.40,30.05,11,2,11,0.01
2013-11-9,49.3,41.0,21.6,16.3,0.4,-26.5,44,21,10,30.53,30.40,7,1,7,0.00
2013-11-10,57.2,51.1,37.0,41.3,24.8,16.1,63,36,23,30.42,30.05,8,0,8,0.02
2013-11-11,59.0,46.0,-5.4,25.1,10.5,-28.1,46,26,10,30.43,30.16,6,2,8,0.00
2013-11-12,49.6,35.2,31.8,25.8,17.3,-0.7,68,51,25,30.49,30.24,6,1,6,0.19
2013-11-13,39.6,30.1,24.4,1.5,-5.6,-17.2,33,22,10,30.59,30.49,6,1,6,0.00
2013-11-14,55.8,30.3,0.0,11.4,1.0,-10.6,34,14,10,30.54,30.38,9,1,9,0.00
2013-11-15,62.6,51.0,33.1,32.8,14.6,-5.9,60,29,10,30.55,30.46,10,2,10,0.00
2013-11-16,59.4,45.4,36.0,32.8,16.3,1.3,66,37,10,30.66,30.51,99,1,99,0.00
2013-11-17,61.9,52.0,2.3,56.9,39.1,-27.7,92,66,20,30.65,30.22,8,1,8,0.13
2013-11-18,70.2,56.3,42.6,60.7,39.9,27.9,94,58,22,30.21,29.88,11,2,11,0.35
2013-11-19,49.8,40.7,20.8,30.3,0.2,-27.0,59,20,10,30.54,29.99,13,3,13,0.00
2013-11-20,38.7,36.1,29.5,3.5,-5.8,-19.9,32,17,13,30.85,30.55,9,5,13,0.00
2013-11-21,38.3,38.3,38.3,-8.2,-8.2,-8.2,13,13,13,30.85,30.85,7,7,8,0.00
2013-11-22,38.3,38.3,38.3,-8.2,-8.2,-8.2,13,13,13,30.85,30.85,7,7,8,0.00
2013-11-23,38.3,38.3,38.3,-8.2,-8.2,-8.2,13,13,13,30.85,30.85,7,7,8,0.00
2013-11-24,38.3,38.3,38.3,-8.2,-8.2,-8.2,13,13,13,30.85,30.85,7,7,8,0.00
2013-11-25,38.3,38.3,38.3,-8.2,-8.2,-8.2,13,13,13,30.85,30.85,7,7,8,0.00
2013-11-26,38.3,38.3,38.3,-8.2,-8.2,-8.2,13,13,13,30.85,30.85,7,7,8,0.00
2013-11-27,38.3,38.3,38.3,-8.2,-8.2,-8.2,13,13,13,30.85,30.85,7,7,8,0.00
2013-11-28,38.3,38.3,38.3,-8.2,-8.2,-8.2,13,13,13,30.85,30.85,7,7,8,0.00
2013-11-29,38.3,38.3,38.3,-8.2,-8.2,-8.2,13,13,13,30.85,30.85,7,7,8,0.00
2013-11-30,38.3,38.3,38.3,-8.2,-8.2,-8.2,13,13,13,30.85,30.85,7,7,8,0.00
2013-12-1,38.3,38.3,38.3,-8.2,-8.2,-8.2,13,13,13,30.85,30.85,7,7,8,0.00
2013-12-2,38.3,38.3,38.3,-8.2,-8.2,-8.2,13,13,13,30.85,30.85,7,7,8,0.00
2013-12-3,38.3,38.3,38.3,-8.2,-8.2,-8.2,13,13,13,30.85,30.85,7,7,8,0.00
2013-12-4,38.3,38.3,38.3,-8.2,-8.2,-8.2,13,13,13,30.85,30.85,7,7,8,0.00
2013-12-5,38.3,38.3,38.3,-8.2,-8.2,-8.2,13,13,13,30.85,30.85,7,7,8,0.00
2013-12-6,38.3,38.3,38.3,-8.2,-8.2,-8.2,13,13,13,30.85,30.85,7,7,8,0.00
2013-12-7,38.3,38.3,38.3,-8.2,-8.2,-8.2,13,13,13,30.85,30.85,7,7,8,0.00